Weather History for Laramie, WY

Change the Weather History Date:

Friday, August 15, 2014

  Actual Average Record
Temperature  
Mean Temperature 63 °F 63 °F  
Max Temperature 77 °F 78 °F 86 °F (1960)
Min Temperature 49 °F 47 °F 35 °F (1951)
Degree Days  
Heating Degree Days 2 3  
Month to date heating degree days 42 34  
Since 1 June heating degree days 339 344  
Since 1 July heating degree days 97 103  
Cooling Degree Days 0 1  
Month to date cooling degree days 2 15  
Year to date cooling degree days 67 62  
Since 1 June cooling degree days 67 62  
Growing Degree Days 12 (Base 50)    
Moisture  
Dew Point 47 °F    
Average Humidity 59    
Maximum Humidity 93    
Minimum Humidity 25    
Precipitation  
Precipitation 0.14 in 0.04 in 0.48 in (2008)
Month to date precipitation 0.57 0.67  
Year to date precipitation 9.73 7.59  
Sea Level Pressure  
Sea Level Pressure 30.05 in    
Wind  
Wind Speed 11 mph (WSW)    
Max Wind Speed 26 mph    
Max Gust Speed 32 mph    
Visibility 10 miles    
Events Rain , Thunderstorm    
T = Trace of Precipitation, MM = Missing Value Source: NWS Daily Summary

Daily Weather History Graph

Daily Weather History Graph

Search for Another Location

Airport:

Trip Planner

Search our weather history database for the weather conditions in past years. The results will help you decide how hot, cold, wet, or windy it might be!

Date:

Astronomy

Aug. 15, 2014 Rise Set
Actual Time 6:11 AM MDT 8:01 PM MDT
Civil Twilight 5:42 AM MDT 8:31 PM MDT
Nautical Twilight 5:06 AM MDT 9:07 PM MDT
Astronomical Twilight 4:27 AM MDT 9:45 PM MDT
Moon 11:01 PM MDT (8/15) 12:01 PM MDT (8/15)
Length of Visible Light 14h 49m
Length of Day
13h 49m
Waning Gibbous, 68% of the Moon is Illuminated
Aug 15
Waning Gibbous
Aug 17
Last Quarter
Aug 25
New
Sep 2
First Quarter
Sep 8
Full

Hourly Weather History & Observations

Time (MDT) Temp. Dew Point Humidity Pressure Visibility Wind Dir Wind Speed Gust Speed Precip Events Conditions
12:01 AM 57.0 °F 51.1 °F 81% 30.27 in 10.0 mi NNW 19.6 mph 28.8 mph 0.00 in Rain , Thunderstorm Light Thunderstorms and Rain
12:25 AM 55.0 °F 51.1 °F 86% 30.27 in 2.0 mi NW 8.1 mph 20.7 mph 0.14 in Rain , Thunderstorm Heavy Thunderstorms and Rain
12:37 AM 55.0 °F 51.1 °F 86% 30.25 in 10.0 mi Calm Calm - 0.14 in Rain , Thunderstorm Light Thunderstorms and Rain
12:49 AM 55.4 °F 51.8 °F 88% 30.25 in 10.0 mi WSW 4.6 mph - 0.14 in   Mostly Cloudy
12:53 AM 54.0 °F 51.1 °F 90% 29.94 in 10.0 mi WSW 4.6 mph - 0.14 in   Scattered Clouds
1:53 AM 53.1 °F 48.9 °F 86% 29.92 in 10.0 mi West 6.9 mph - N/A   Clear
2:53 AM 52.0 °F 48.9 °F 89% 29.92 in 10.0 mi SSE 5.8 mph - N/A   Clear
3:53 AM 51.1 °F 48.9 °F 92% 29.93 in 10.0 mi SSE 5.8 mph - N/A   Clear
4:53 AM 50.0 °F 46.9 °F 89% 29.94 in 10.0 mi ESE 6.9 mph - N/A   Clear
5:53 AM 50.0 °F 46.9 °F 89% 29.94 in 10.0 mi South 4.6 mph - N/A   Clear
6:53 AM 51.1 °F 48.0 °F 89% 30.01 in 10.0 mi SE 4.6 mph - N/A   Clear
8:53 AM 66.0 °F 52.0 °F 60% 29.96 in 10.0 mi WSW 8.1 mph - N/A   Clear
9:53 AM 70.0 °F 52.0 °F 53% 29.95 in 10.0 mi NNW 8.1 mph - N/A   Clear
10:53 AM 73.0 °F 50.0 °F 44% 29.95 in 10.0 mi NNW 18.4 mph 23.0 mph N/A   Partly Cloudy
11:53 AM 75.0 °F 46.9 °F 37% 29.94 in 10.0 mi NNW 20.7 mph 31.1 mph N/A   Partly Cloudy
12:38 PM 72.0 °F 42.1 °F 34% 30.27 in 10.0 mi NW 19.6 mph 25.3 mph N/A Thunderstorm Partly Cloudy
12:53 PM 73.0 °F 43.0 °F 34% 29.95 in 10.0 mi NW 20.7 mph 27.6 mph N/A Thunderstorm Partly Cloudy
1:19 PM 68.0 °F 44.1 °F 42% 30.28 in 10.0 mi SW 10.4 mph 26.5 mph 0.00 in Rain , Thunderstorm Light Thunderstorms and Rain
1:38 PM 73.9 °F 43.0 °F 33% 30.27 in 10.0 mi West 12.7 mph - 0.00 in   Mostly Cloudy
1:53 PM 72.0 °F 44.1 °F 37% 29.97 in 10.0 mi West 24.2 mph 31.1 mph 0.00 in   Mostly Cloudy
2:53 PM 75.0 °F 37.9 °F 26% 29.94 in 10.0 mi NW 16.1 mph - N/A   Partly Cloudy
3:53 PM 75.0 °F 42.1 °F 31% 29.94 in 10.0 mi WNW 15.0 mph 24.2 mph N/A   Partly Cloudy
4:53 PM 75.0 °F 42.1 °F 31% 29.93 in 10.0 mi NW 12.7 mph 20.7 mph N/A   Clear
5:35 PM 73.0 °F 44.1 °F 35% 30.25 in 10.0 mi WSW 20.7 mph 24.2 mph N/A Thunderstorm Scattered Clouds
5:49 PM 69.8 °F 48.2 °F 46% 30.27 in 10.0 mi WSW 21.9 mph 31.1 mph N/A Thunderstorm Thunderstorm
5:53 PM 68.0 °F 46.9 °F 47% 29.99 in 10.0 mi SW 21.9 mph 31.1 mph N/A Thunderstorm Thunderstorm
6:23 PM 69.1 °F 46.9 °F 45% 30.25 in 10.0 mi SW 12.7 mph - N/A   Mostly Cloudy
6:53 PM 66.9 °F 48.0 °F 51% 29.96 in 10.0 mi WSW 11.5 mph - N/A   Clear
7:53 PM 63.0 °F 52.0 °F 67% 29.96 in 10.0 mi SSW 6.9 mph - N/A   Clear
8:53 PM 61.0 °F 48.0 °F 62% 29.93 in 10.0 mi SW 12.7 mph - N/A   Clear
9:53 PM 59.0 °F 46.0 °F 62% 29.93 in 10.0 mi South 8.1 mph - N/A   Clear
11:53 PM 52.0 °F 45.0 °F 77% 29.94 in 10.0 mi SSE 10.4 mph - N/A   Clear